Погода в Визимбире

Россия / Республика Марий Эл     56°39′31″N   49°03′35″E
темп.,
°C
ветер,
м/с
пор.,
м/с
влажн.,
%
обл.,
%
осадки,
мм/ч
давл.,
гПа
погр.,
м
24 января, вс
вс2400:00−8ююв5995100 0.6 1018220
03:00−5ююв4797100 1.2 1017156
06:00−1ююз3898100 0.6 1017208
09:00+1юз3899100 0.8 1018255
12:000юз37100100 0.0 1019258
15:000ююз36100100 0.1 1020227
18:00+1ююз379897 0.0 1021235
21:00+1ююз389998 0.1 1021251
25 января, пн
пн2500:00+1ююз4998100 0.0 1022321
03:00+1ююз51098100 0.1 1022350
06:00+1ююз51098100 0.4 1022345
09:00+1ююз51199100 0.6 1023365
12:000ююз61197100 0.4 1024426
15:00−1ююз51196100 1.2 1025464
18:00−3ююз51194100 0.0 1025456
21:00−3ю51094100 0.1 1025533
26 января, вт
вт2600:00−4ю51094100 0.1 1025617
03:00−4ю51094100 0.1 1025576
06:00−4ю41095100 0.1 1024480
09:00−3ю4995100 0.3 1023550
12:00−2ю61095100 0.1 1023526
15:00−4ю61094100 0.1 1023535
18:00−4ю51294100 0.1 1022487
21:00−3ю61195100 0.1 1022612
27 января, ср
ср2700:00−3ю51194100 0.1 1022479
03:00−3ю61195100 0.2 1021516
06:00−3ю51195100 0.1 1020530
09:00−3ю61194100 0.2 1020529
12:00−3ю61194100 0.1 1020522
15:00−3ю61295100 0.1 1019521
18:00−2ю61294100 0.0 1019438
21:00−5ю61293100 0.1 1018423
28 января, чт
чт2800:00−6ю71492100 0.0 1018371
03:00−7ю61590100 0.0 1017388
06:00−6ю71589100 0.0 1017403
09:00−6ю71490100 0.0 1016422
12:00−5ю71491100 0.0 1016463
15:00−5ю61490100 0.0 1015463
18:00−6ю61391100 0.0 1015413
21:00−7ю61292100 0.0 1014404